User: anonymous   Login
Location: ??
(35.5052°N, 139.7262°E)
Time: 22:38:51
(UTC+00:00)
Language:

BREEZE-M R/B - Orbit

View from above orbital plane
View from above orbital plane
View from above satellite
View from above satellite

Ground track
Ground track

The orbit data is extracted from the following two-line orbital elements,

1 32709U 08011B   21266.25315499  .00000621  00000-0  40484-2 0  9997
2 32709  48.8577 211.9391 6514844  84.7030  12.5723  3.07814080 92936
Epoch (UTC): 23 September 2021 06:04:32
Eccentricity: 0.6514844
inclination: 48.8577°
perigee height: 579 km
apogee height: 26589 km
right ascension of ascending node: 211.9391°
argument of perigee: 84.7030°
revolutions per day: 3.07814080
mean anomaly at epoch: 12.5723°
orbit number at epoch: 9293

The dashed part of the orbit path shows where the satellite is in the earth's shadow,  

DLR